Theta_e
307 307 308 308 307 307 307 307 307 307 307 307 307 307 307 308 309 311 312 313 315 318 322 324 326 326 327 326 329 332 332 332 335 332 330 330 330 328 328 331 334 336 338
306 306 306 306 306 306 306 306 306 306 306 306 306 306 307 307 307 307 308 309 311 315 318 322 323 324 325 326 328 331 331 330 330 331 332 332 329 329 329 332 332 335 335
305 305 305 305 305 305 305 305 305 305 304 305 305 306 306 306 305 305 306 307 308 310 315 318 320 323 324 325 325 328 330 330 329 329 329 331 330 329 329 330 332 335 336
304 305 304 304 304 304 304 304 304 304 304 304 305 305 306 305 304 304 305 306 308 310 311 315 317 320 323 324 324 325 326 328 329 329 328 328 329 329 330 332 332 336 337
303 303 303 303 303 303 303 303 303 303 303 304 304 305 305 305 304 304 304 304 305 306 307 311 316 319 322 322 323 324 324 327 327 327 327 327 328 330 331 331 333 334 337
302 301 301 301 302 302 302 302 303 303 304 304 304 304 305 305 304 303 302 303 303 305 308 309 311 317 320 320 321 323 324 325 326 326 327 327 328 330 331 331 334 334 335
301 301 301 301 301 301 301 302 303 303 303 303 303 304 303 303 303 303 302 302 303 303 305 309 312 316 320 322 322 323 324 323 324 326 327 327 328 329 331 331 331 332 332
299 300 300 300 300 300 301 301 302 302 303 304 303 302 302 302 302 302 302 302 303 303 305 307 314 317 320 320 321 321 322 323 323 324 324 325 327 328 327 327 329 329 330
299 299 298 299 299 300 300 300 302 304 304 303 303 302 302 302 302 301 302 302 302 303 306 307 311 318 319 319 319 319 321 324 323 325 325 327 326 323 325 327 329 328 328
297 297 297 298 298 298 299 301 302 303 303 303 303 302 301 301 302 302 302 302 302 304 306 308 311 317 318 318 318 320 321 320 319 323 324 323 324 323 326 326 327 327 326
295 295 296 297 298 298 301 302 302 301 302 303 302 302 302 301 301 301 301 301 301 305 306 311 318 318 316 319 317 318 318 316 318 320 317 319 320 321 324 326 326 326 324
294 295 296 297 298 300 301 300 300 301 301 303 302 302 302 301 301 301 302 302 303 304 306 312 318 316 315 319 319 319 319 318 319 319 319 321 322 321 321 323 322 324 324
294 295 296 297 298 300 300 300 300 301 303 302 301 302 301 300 301 302 304 304 306 304 306 311 314 316 318 318 318 319 319 322 322 323 322 321 321 321 321 320 322 325 328
293 294 295 296 298 300 300 300 301 302 303 302 302 301 301 301 301 302 303 305 308 307 309 315 315 317 317 314 318 320 320 323 323 321 318 318 320 322 324 326 325 325 326
293 293 295 296 297 299 299 299 300 303 304 303 302 302 301 300 301 302 304 306 312 312 315 316 315 318 318 317 318 317 316 316 316 316 319 322 324 326 328 326 326 327 328
292 293 293 294 295 296 298 299 301 304 305 303 302 300 300 300 300 302 305 310 314 316 317 317 318 319 317 316 316 316 317 317 319 321 323 323 324 326 328 327 327 327 326
292 292 293 294 295 296 297 299 301 304 305 305 304 303 303 301 302 305 307 312 314 317 317 319 320 317 316 317 318 317 317 318 318 320 322 324 325 329 328 327 326 325 322
291 292 292 293 294 295 296 298 300 303 306 307 307 305 303 302 306 309 309 312 314 317 318 320 319 316 315 317 317 316 317 320 323 322 323 326 326 329 330 329 326 328 323
291 291 291 291 293 294 295 297 299 302 307 306 307 307 304 307 311 311 311 314 316 318 319 320 318 316 315 318 316 316 316 317 321 325 325 326 327 326 329 330 328 329 323
290 290 290 290 291 292 293 295 299 301 306 307 307 306 307 308 310 310 314 315 317 318 318 319 318 316 316 318 317 317 317 317 317 321 325 327 327 327 326 328 327 325 325
288 288 289 289 290 291 292 294 296 298 305 306 306 304 305 310 310 310 312 316 316 316 317 316 316 316 317 317 317 317 318 317 316 318 322 325 327 327 328 328 329 326 326
287 287 287 288 288 289 290 292 293 295 298 304 305 306 309 311 311 312 311 313 317 316 315 315 314 316 316 316 317 320 322 320 321 325 326 326 327 328 329 328 326 322 320
289 287 286 287 287 287 289 289 290 291 294 296 300 304 306 308 308 309 311 314 316 316 315 315 317 317 316 316 317 319 322 324 323 322 326 327 326 327 326 324 323 321 320
287 287 286 285 286 286 287 287 288 290 291 293 294 296 299 305 306 307 308 310 313 315 315 317 316 317 317 316 316 316 318 319 319 319 323 326 326 326 325 325 322 317 314
286 286 286 286 284 284 285 285 286 287 288 288 290 291 292 295 301 303 307 308 309 311 313 315 315 315 316 316 315 316 312 312 312 312 316 318 324 325 324 322 318 310 308
284 284 285 284 285 284 284 284 284 285 286 286 287 288 289 290 293 295 298 301 305 310 310 312 314 315 316 315 315 315 312 311 311 311 313 317 319 325 324 321 318 311 307
Wind_Speed
12 13 14 15 16 16 18 19 19 19 19 19 20 20 21 22 22 24 27 30 31 30 31 31 31 29 29 26 27 29 28 29 16 29 32 27 24 29 24 22 23 28 32
14 15 16 17 17 17 18 18 17 18 18 19 19 20 22 23 23 25 28 30 33 32 31 32 32 29 29 27 25 28 29 28 27 16 32 28 25 25 22 21 28 28 28
16 17 18 18 17 18 19 18 18 19 19 20 20 21 22 22 23 26 28 30 32 33 33 32 31 30 29 28 27 26 28 30 31 27 27 29 27 22 22 28 27 25 22
17 17 19 19 18 19 19 20 20 20 20 20 20 22 23 23 24 24 26 27 27 29 31 32 32 32 32 29 28 27 28 29 30 29 26 26 26 23 20 21 21 19 16
19 20 20 19 19 20 20 21 21 20 20 22 23 25 26 26 25 24 24 27 29 30 32 31 32 35 33 34 29 27 28 28 26 23 21 22 24 21 20 18 22 20 14
20 21 20 19 20 20 21 22 22 22 23 24 26 27 27 27 27 29 30 28 29 28 30 32 33 32 33 33 35 39 39 28 28 23 21 14 25 27 26 24 22 17 7
22 21 20 20 20 21 22 22 23 24 26 26 26 28 29 29 30 31 31 28 26 27 28 29 31 30 29 29 28 31 35 40 41 28 22 25 24 31 28 24 23 30 17
22 21 20 20 21 21 22 22 24 25 24 26 28 29 30 31 32 34 34 29 28 25 27 28 29 30 28 28 24 10 18 25 32 45 42 37 36 35 36 32 30 20 16
21 21 20 20 21 22 23 25 26 25 26 27 29 30 30 31 29 34 33 26 25 24 24 29 28 29 26 18 12 13 18 21 24 30 21 32 32 38 40 33 25 22 11
20 22 22 21 20 23 24 27 25 24 26 28 29 31 31 32 29 28 30 22 21 23 26 26 29 24 14 10 11 14 10 13 12 12 12 12 17 39 38 31 28 19 17
22 23 21 20 22 23 25 24 25 26 26 25 30 29 24 23 23 22 26 23 24 23 21 22 21 18 8 7 3 10 14 14 15 11 17 19 16 21 23 24 23 22 20
22 23 22 22 22 23 23 27 25 26 26 22 24 25 21 19 24 28 26 22 22 24 22 21 15 11 13 5 4 2 17 22 17 23 23 18 16 16 18 22 22 13 12
22 22 22 21 22 21 21 24 25 24 20 21 18 20 17 21 24 28 14 26 27 25 22 20 11 16 3 14 6 10 23 19 20 20 19 16 13 15 15 16 15 14 12
22 22 21 21 22 22 21 22 23 22 17 17 16 16 16 19 23 25 28 14 14 20 16 11 13 9 6 7 14 17 14 15 17 13 12 12 12 13 14 15 19 21 21
21 21 20 19 20 23 23 23 24 25 19 17 17 16 15 17 20 28 32 9 7 13 12 14 8 8 6 8 9 10 9 11 12 13 15 14 14 14 13 17 19 17 11
21 19 19 20 20 21 22 26 26 24 21 16 16 15 21 20 24 27 26 6 9 14 9 10 10 9 10 7 9 9 9 11 14 14 13 13 13 13 12 15 16 15 14
20 20 20 19 20 21 21 20 17 25 18 11 12 14 14 15 21 25 15 7 9 15 11 10 6 10 11 9 7 8 9 8 10 11 12 12 11 11 12 13 15 15 13
21 19 19 21 21 21 20 21 19 17 12 15 11 16 16 15 18 11 5 10 10 11 14 6 7 8 11 8 7 10 10 10 10 10 10 10 10 10 13 13 16 15 13
20 20 23 21 20 21 20 19 18 17 12 11 12 10 11 13 16 13 8 13 14 15 15 5 7 8 8 6 8 9 10 9 9 10 9 8 8 9 9 11 10 13 17
20 22 23 21 21 20 20 19 19 19 16 8 7 9 10 12 15 17 13 14 15 14 9 5 6 6 5 6 9 8 6 6 7 8 7 7 5 5 8 10 11 14 14
22 23 24 21 21 21 20 20 21 21 13 10 8 8 11 8 13 15 20 15 14 10 5 6 8 6 5 7 7 8 7 6 6 6 5 5 4 3 4 6 9 10 12
23 24 23 22 23 22 22 21 22 23 24 17 14 18 15 13 18 19 18 16 12 8 8 9 9 5 4 6 9 8 7 7 8 8 8 7 4 2 2 6 8 9 13
24 25 24 23 23 23 23 23 23 24 23 23 23 21 20 21 23 19 16 11 9 8 8 7 4 3 5 4 7 9 9 11 9 7 7 7 6 6 4 8 9 8 9
24 24 25 24 25 24 24 24 23 23 23 22 22 22 22 20 20 22 20 15 9 8 6 4 1 2 3 3 6 7 8 9 11 10 8 7 8 7 4 6 8 8 9
24 24 24 25 25 25 24 24 24 25 25 24 23 23 24 19 16 19 17 15 13 12 8 3 1 4 2 4 3 3 5 6 9 11 9 6 4 5 4 4 10 12 16
22 23 23 24 24 24 24 24 24 24 24 24 23 23 24 25 23 19 19 17 16 12 9 6 4 3 5 4 5 7 3 2 6 9 9 5 2 2 4 6 13 16 20
Wind_Direction
328 320 314 310 308 303 295 294 291 288 289 288 288 289 289 289 285 280 274 270 266 264 259 258 259 260 259 260 257 250 243 244 252 256 255 251 258 266 260 253 247 232 215
321 316 310 308 307 303 299 294 291 291 292 291 291 289 287 287 287 284 280 275 267 263 260 257 257 259 260 260 256 250 243 237 247 250 257 253 254 252 244 244 243 227 208
315 313 310 308 305 304 303 301 296 294 291 287 283 280 281 282 285 282 276 276 274 267 261 259 258 256 257 260 261 258 249 240 235 244 251 255 259 250 242 233 243 219 188
317 314 312 310 308 308 307 303 296 292 288 284 279 279 279 280 282 284 280 278 275 273 267 263 261 260 255 257 260 261 259 249 241 235 240 243 248 244 233 220 224 219 187
317 314 311 309 306 306 304 303 296 287 284 282 286 285 284 281 281 285 289 289 286 284 283 278 268 262 257 253 255 258 256 248 238 231 229 228 229 229 213 214 223 204 183
311 307 304 302 304 301 300 297 289 286 287 289 288 286 285 283 285 285 283 291 289 283 280 273 273 277 268 269 263 260 252 246 236 235 232 226 224 222 213 200 208 193 174
308 305 303 302 301 301 297 292 292 296 295 288 289 293 289 282 281 282 285 285 287 284 284 283 273 275 269 264 267 268 258 250 246 241 233 230 230 218 209 192 195 201 181
305 303 304 302 302 300 297 297 298 292 292 298 299 294 285 281 278 278 279 283 288 282 276 278 275 269 265 263 258 262 272 246 243 244 243 241 225 211 195 192 177 153 137
304 303 304 304 301 300 302 296 292 298 302 301 304 298 292 292 283 286 271 277 286 280 277 272 272 267 270 242 256 288 267 240 220 226 237 213 206 194 178 162 160 161 154
307 305 303 300 298 298 293 294 301 300 301 300 300 307 303 293 290 282 268 274 282 270 274 274 267 266 253 244 242 226 220 214 190 180 156 200 198 172 166 167 166 158 150
307 303 302 298 295 292 293 301 302 296 298 293 307 308 302 310 301 286 280 268 263 262 273 270 266 237 239 158 97 127 169 139 160 134 136 135 142 148 164 173 166 159 167
308 306 304 300 296 296 301 301 302 300 297 294 305 307 306 313 309 301 289 274 257 256 264 272 275 187 161 19 105 130 125 120 150 151 138 141 143 152 152 156 158 146 152
310 306 303 300 299 302 304 303 305 300 288 295 308 311 317 319 317 319 297 302 265 257 260 279 166 159 189 321 250 195 170 166 160 150 149 151 157 160 155 151 149 136 117
310 309 307 303 307 308 310 309 301 296 290 299 302 312 314 312 313 315 320 302 256 247 259 213 195 215 296 132 134 141 175 162 152 140 133 135 144 148 156 159 146 145 128
314 310 310 310 310 311 311 304 298 295 290 294 302 309 301 296 307 318 328 298 225 216 198 176 191 224 145 92 112 123 115 122 125 133 135 138 146 159 148 150 146 143 130
319 320 318 315 312 308 306 309 313 306 310 308 300 288 292 298 309 322 340 235 203 198 176 153 188 192 128 122 115 113 118 118 124 133 135 144 153 158 148 141 140 130 129
329 326 325 321 317 312 312 309 312 317 318 319 318 321 317 313 326 334 334 207 198 173 154 172 156 145 121 112 125 127 114 112 124 139 134 135 139 128 135 138 139 125 130
338 336 333 328 320 317 317 313 311 307 311 328 334 326 333 339 346 353 332 162 175 162 183 168 149 136 102 113 127 107 95 98 108 123 125 117 118 138 139 141 153 151 143
345 345 342 335 328 327 323 321 318 311 319 317 332 340 342 6 26 52 113 147 158 166 171 162 156 130 96 105 116 102 91 86 95 111 124 125 118 125 138 144 147 153 143
350 351 352 346 343 344 342 340 339 334 324 338 342 352 358 15 38 27 90 128 145 148 147 126 141 124 98 121 109 90 87 90 96 99 111 122 127 137 141 152 155 156 157
354 356 358 359 354 351 349 351 348 348 6 21 29 11 3 14 47 30 49 67 74 80 117 139 134 113 110 126 105 86 78 81 101 110 111 114 111 124 142 161 165 161 163
2 2 3 3 358 359 360 1 2 4 9 17 17 18 30 45 49 34 34 44 63 81 87 102 110 107 125 126 111 89 76 98 107 107 110 102 76 92 146 144 130 129 143
13 10 7 8 6 5 11 11 11 8 8 9 9 15 23 42 36 34 33 44 46 54 64 85 91 101 136 125 101 86 74 77 80 92 91 80 55 47 79 128 127 136 163
14 15 12 9 9 13 13 10 11 14 16 15 12 10 14 16 24 29 36 36 33 35 50 44 45 131 132 126 101 91 84 80 72 57 54 47 42 41 62 125 117 128 136
15 14 15 12 9 10 11 12 13 12 11 14 12 7 6 14 20 19 13 18 30 30 18 24 19 186 190 185 160 138 99 60 49 36 21 22 34 59 75 155 141 127 141
15 16 16 13 11 10 12 10 11 11 9 8 11 9 6 4 4 10 10 4 15 13 15 2 342 264 222 223 216 215 217 10 23 30 13 8 15 77 123 164 160 137 148